Location: Zagreb
(45.8000°N, 16.0000°E)
Time: 02:51:37
(UTC+02:00)

Transit 2A Rocket - Pass Details

Date: 01 February 2022
Orbit: 592 x 909 km, 66.7° (Epoch: 26 May)

Event Time Altitude Azimuth Distance (km) Brightness Sun altitude
Rises 16:01:24 0° 179° (S) 3,474 8.9 8.3°
Reaches altitude 10° 16:04:07 10° 169° (S) 2,563 8.1 7.9°
Maximum altitude 16:09:18 31° 110° (ESE) 1,539 6.4 7.2°
Drops below altitude 10° 16:14:32 10° 50° (NE) 2,593 7.1 6.4°
Sets 16:17:18 0° 41° (NE) 3,521 7.8 6.0°
